SAOCOM 1A (43641 NORAD) Tracking and Keplerian Element Data

This shows tracking and keplerian element data for the satellite.

Feedback or suggestion? Click here.




ElementValue
Catalog43641
NameSAOCOM 1A
Epoch Orbit4196
Epoch Day199.36369467
Epoch Year2019
RAAN25.2828
Inclination97.8881
Eccentricity0.0001411
Argument of Perigee76.2126
Mean Anonmoly283.9242
Mean Motion14.82157322
Decay Rate2E-08
L11 43641U 18076A 19199.36369467 .00000002 00000-0 68416-5 0 9995
L22 43641 97.8881 25.2828 0001411 76.2126 283.9242 14.82157322 41964

Live tracking and technical data element details for SAOCOM 1A (NORAD 43641). SAOCOM 1A can be tracked NOW for your location showing map with azimuth and elevation plus other details from your city location.

Track the satellite on the map from your city or location and see movement details for azimuth, elevation, latitude, longitude, range, height, and movement on the map or in text.







IsCatalogInMostPopularTable: catalog: 43641, numindb: 189
Update: records affected: 1



GetName: 43641 SAOCOM 1A

Hit Count: updated at: Sat, 20 Jul 2019 00:02:05 GMT